User: anonymous
Location: Caltech
(34.1382°N, 118.1253°W)
Time: 09:15:08
(UTC-07:00)
Language:

Cosmos 1125 Rocket - Orbit

View from above orbital plane
View from above orbital plane
View from above satellite
View from above satellite

Ground track
Ground track

The orbit data is extracted from the following two-line orbital elements,

1 11511U 79078B   14264.80948083  .00000166  00000-0  65511-4 0  8980
2 11511 074.0393 351.8425 0014599 120.8113 017.3536 14.36451114835112
Epoch (UTC): 21 September 2014 19:25:39
Eccentricity: 0.0014599
inclination: 74.0393°
perigee height: 760 km
apogee height: 780 km
right ascension of ascending node: 351.8425°
argument of perigee: 120.8113°
revolutions per day: 14.36451114
mean anomaly at epoch: 17.3536°
orbit number at epoch: 83511

The dashed part of the orbit path shows where the satellite is in the earth's shadow,  

DLR